Location: Nairn
(57.5833°N, 3.8667°W)
Time: 02:05:59
(UTC+00:00)

Transit 2A - Pass Details

Date: 02 December 2020
Orbit: 598 x 960 km, 66.7° (Epoch: 20 January)

Event Time Altitude Azimuth Distance (km) Brightness Sun altitude
Rises 17:07:50 0° 205° (SSW) 3,616 10.3 -11.2°
Reaches altitude 10° 17:10:29 10° 201° (SSW) 2,652 9.4 -11.5°
Maximum altitude 17:16:30 54° 126° (SE) 1,085 6.6 -12.3°
Enters shadow 17:20:56 17° 54° (NE) 2,064 7.6 -12.8°
